Location: Nitra
(0.0000°N, 18.0833°E)
Time: 16:01:31
(UTC+02:00)

Daily predictions for brighter satellites

Satellite Brightness Start Highest point End
(mag) Time Altitude Azimuth Time Altitude Azimuth Time Altitude Azimuth
Ariane H10-3 4.4 18:39:22 10° WSW 18:44:44 70° S 19:19:06 10° E
Ariane H10-3 4.4 18:39:23 10° WSW 18:44:44 70° S 19:19:06 10° E
SL-08 RB Rocket 3.6 19:00:49 10° SSE 19:05:17 72° ENE 19:09:46 10° N
Centaur Rocket 4.4 19:01:53 10° W 19:05:52 59° NNW 19:17:57 10° ENE
Cosmos 1992 Rocket 4.2 19:01:03 10° NNW 19:06:15 82° WSW 19:11:29 10° S
Cosmos 2369 3.7 19:01:46 10° S 19:07:26 63° ESE 19:13:04 10° NNE
SL-8 R/B 4.1 19:03:04 10° NW 19:07:50 69° SW 19:12:37 10° SSE
Cosmos 1980 Rocket 2.2 19:06:14 10° S 19:11:52 64° ESE 19:17:26 10° NNE
Cosmos 1850 Rocket 4.3 19:08:06 10° S 19:12:59 43° ESE 19:17:50 10° NNE
Cosmos 1869 Rocket 4.4 19:09:45 10° SSW 19:14:04 56° W 19:18:24 10° N
BREEZE-M DEB (TANK) 4.5 19:09:30 10° SW 19:14:16 33° WNW 19:16:34 10° N
Cosmos 2278 4.4 19:11:53 10° SSE 19:16:52 31° ESE 19:21:50 10° NE
ARGOS 3.9 19:11:58 10° S 19:17:13 57° WSW 19:22:27 10° NNW
Cosmos 1733 3.9 19:13:57 10° SSE 19:17:22 32° E 19:20:45 10° NNE
Lacrosse 5 rocket 1.4 19:15:32 10° NW 19:19:08 65° WSW 19:22:41 10° SSE
ARGOS Delta rocket 4.0 19:14:10 10° N 19:19:14 82° W 19:24:02 10° SSW
GPS 2-17 Rocket1 3.1 19:17:19 10° WSW 19:21:37 67° NNW 19:25:25 13° ENE
Cosmos 405 Rocket 3.0 19:18:04 10° N 19:22:00 73° W 19:25:52 10° S
SL-16 R/B 3.8 19:20:51 10° SE 19:23:18 13° ESE 19:23:23 13° ESE
Aurora 2 Rocket 4.0 19:20:48 10° W 19:24:42 27° SSW 19:27:47 10° SSE
Cosmos 1842 3.1 19:23:48 10° N 19:27:36 64° E 19:31:27 10° SSE
SL-27 R/B 2.1 19:25:26 10° N 19:28:42 66° ENE 19:31:57 10° SSE
Cosmos 1726 3.1 19:29:50 10° SSE 19:32:46 24° E 19:33:18 23° E
Cosmos 2297 Rocket 4.1 19:30:55 10° NE 19:31:28 11° NE 19:31:28 11° NE
ARIANE 5 R/B 3.0 19:30:45 10° W 19:36:19 84° N 19:38:12 25° E
Cosmos 1707 3.2 19:32:54 10° NNE 19:36:21 34° E 19:39:51 10° SSE
ATLAS 2A CENTAUR R/B 1.8 19:33:50 10° NW 19:37:04 25° NNE 19:37:40 23° NE
ARIANE 5 R/B 4.3 19:27:56 10° W 19:38:23 44° SSW 19:41:14 18° SE
Cosmos 1741 Rocket 4.0 19:33:14 10° S 19:38:35 84° E 19:43:52 10° NNE
Cosmos 1733 Rocket 2.9 19:38:23 10° S 19:42:45 86° E 19:47:08 10° N
Ariane H10 3.1 19:34:26 10° W 19:43:19 60° S 19:44:50 29° ESE
OAO 3 Rocket 3.8 19:39:03 10° WNW 19:43:39 51° SW 19:47:28 14° SE
Cosmos 1703 Rocket 3.8 19:39:39 10° N 19:43:57 69° W 19:48:18 10° S
PRC 14 4.5 19:41:05 10° NW 19:44:26 85° NE 19:46:15 28° SE
Okean 3 3.7 19:41:13 10° N 19:45:25 69° W 19:49:36 10° S
Meteor 2-15 Rocket 4.4 19:41:15 10° N 19:47:17 61° E 19:53:19 10° SSE
SWIFT 4.3 19:46:04 10° SSW 19:48:38 16° SSE 19:49:20 15° SSE
Cosmos 1805 3.4 19:48:36 10° S 19:52:27 71° W 19:56:16 10° N
Ariane H10 4.0 19:43:24 10° W 19:52:31 39° SSW 19:54:01 26° SSE
Nadezhda 4 Rocket 4.1 19:50:21 10° SSE 19:56:26 53° E 20:02:32 10° NNE
MINOTAUR IV R/B 4.4 19:53:32 10° S 19:58:05 79° ESE 20:01:41 16° NNE
IRIDIUM 106 4.4 19:53:22 10° SSE 19:58:27 52° E 20:03:28 10° NNE
Okean O Rocket 2.1 20:00:00 40° NE 20:00:00 40° NE 20:03:18 10° N
Cosmos 1242 Rocket 4.4 19:57:19 10° SSW 20:00:31 31° W 20:03:42 10° NNW
Landsat 5 3.9 19:57:40 10° N 20:02:04 66° WNW 20:06:23 10° SSW
Timation 1 Rocket 4.3 19:56:58 10° NNW 20:02:54 88° WSW 20:08:53 10° SSE
CZ-4C R/B 3.6 19:56:32 10° N 20:04:28 40° ENE 20:07:02 33° ESE
BLOCK DM-SL R/B 2.2 20:03:29 10° W 20:04:49 26° W 20:04:49 26° W
Ariane H10-3 3.1 20:01:54 10° W 20:06:01 45° NNW 20:06:01 45° NNW
ATLAS 5 CENTAUR R/B 4.2 19:17:00 10° WSW 20:09:23 55° NNW 20:17:02 20° NE
In-Cosmos 22 4.0 20:04:44 10° N 20:10:00 85° W 20:15:21 10° S
Meteor 2-16 Rocket 4.5 20:05:35 10° SSE 20:11:29 52° E 20:13:34 37° NE
GPS 2-12 Rocket1 2.9 20:11:59 10° WNW 20:16:28 80° SSW 20:16:28 80° SSW
ARIANE 3 DEB 3.6 20:20:48 10° WSW 20:26:00 52° SW 20:26:00 52° SW
ATLAS 3B R/B 2.8 20:22:21 10° NNW 20:30:04 90° S 20:34:17 30° SSE
YAOGAN 1 3.9 20:31:07 10° S 20:35:07 38° WSW 20:39:07 10° NNW
CZ-4B R/B 4.1 20:30:32 10° S 20:35:34 45° WSW 20:40:34 10° NNW
Atlas 2A Centaur Rocket 4.4 20:29:45 10° WSW 20:35:44 78° NNW 21:18:37 10° ENE
USA 267 3.1 20:40:13 81° ENE 20:40:22 82° NE 20:46:55 10° NNW
Mugunghwa Rocket 4.1 20:35:04 10° WNW 20:42:59 82° NNE 20:43:05 81° NE
Cosmos 2322 Rocket 4.0 20:37:50 10° S 20:39:25 19° S 20:39:25 19° S
ARIANE 5 DEB (SYLDA) 4.3 20:31:29 10° W 20:45:15 64° SSW 20:45:22 64° S
ARIANE 5 DEB (SYLDA) 4.0 20:28:41 10° W 21:02:56 81° S 21:03:31 77° SE
SL-16 R/B 3.6 21:01:49 10° SW 21:05:22 33° WSW 21:05:22 33° WSW
Cosmos 2297 Rocket 4.4 21:11:52 10° NW 21:13:24 18° NW 21:13:24 18° NW
ARIANE 5 R/B 4.2 21:15:21 10° W 21:56:24 - E 21:16:25 22° W
CZ-4C R/B 4.5 21:45:19 10° NW 21:52:22 34° WSW 21:52:22 34° WSW
